Lapse_Rate
7.6 7.8 7.8 7.5 5.7 5.0 4.8 5.0 5.4 5.7 5.6 5.5 5.4 5.5 4.9 4.3 4.6 4.8 5.2 5.3 5.3 5.7 6.0 6.1 6.7 6.8 6.8 6.7 6.6 6.6 6.4 6.3
7.2 7.6 8.0 7.5 6.8 5.1 5.4 5.2 5.3 5.4 5.7 5.6 5.3 5.5 5.2 4.5 4.3 4.4 5.1 5.6 5.8 5.8 6.3 6.7 6.7 6.6 6.6 6.7 6.6 6.9 6.4 6.2
7.2 7.4 7.4 7.5 7.7 6.9 6.2 6.0 5.6 5.0 5.3 5.2 5.3 5.3 5.0 4.8 5.1 5.2 5.5 5.6 5.8 6.0 6.4 6.6 6.7 6.8 6.6 6.6 6.6 6.5 6.3 6.2
7.3 7.5 7.4 7.2 7.4 7.6 7.4 7.1 6.4 5.5 5.6 5.5 5.5 5.4 4.8 5.2 5.2 5.2 5.4 5.6 5.8 6.1 6.2 6.2 6.4 6.8 6.8 6.7 6.5 6.5 6.3 6.1
7.8 7.7 7.4 7.1 7.0 7.3 7.5 7.6 7.4 7.1 6.7 6.4 5.6 5.6 5.6 5.6 5.5 5.7 5.7 5.9 6.1 6.2 6.5 6.4 6.7 6.6 6.6 6.5 6.4 6.4 6.1 6.0
7.9 7.7 7.5 7.3 7.0 6.9 7.0 7.1 7.1 7.1 7.3 7.4 7.2 6.7 6.4 6.2 6.3 6.5 6.6 6.6 6.7 6.8 6.8 6.5 6.6 6.6 6.6 6.4 6.6 6.3 6.3 6.1
7.8 7.6 7.7 7.7 7.6 7.5 7.4 7.3 7.2 7.2 7.1 7.0 7.2 7.1 7.0 6.9 6.9 7.1 7.1 7.0 7.1 7.0 7.0 7.1 7.1 7.1 6.8 6.5 6.3 6.4 6.4 6.3
8.0 8.0 8.0 7.9 7.9 7.7 7.6 7.6 7.6 7.5 7.3 7.2 7.2 7.1 7.0 7.2 7.2 7.3 7.1 7.1 7.1 7.4 7.2 7.1 7.1 6.7 6.4 6.4 6.5 6.5 6.5 6.3
8.2 8.2 8.0 8.0 7.9 7.7 7.6 7.6 7.6 7.6 7.6 7.5 7.4 7.4 7.4 7.5 7.4 7.4 7.4 7.4 7.2 7.0 7.0 6.9 6.7 6.5 6.4 6.3 6.4 6.3 6.2 6.3
8.3 8.2 8.1 8.0 7.9 7.9 7.9 7.7 7.6 7.6 7.7 7.6 7.7 7.6 7.7 7.7 7.6 7.5 7.8 7.8 7.5 7.2 6.7 6.3 6.2 6.3 6.3 6.2 6.3 6.0 6.3 6.0
8.4 8.3 8.2 8.1 8.0 7.9 7.6 7.5 7.6 7.7 7.6 7.6 7.6 7.5 7.5 7.6 7.5 7.3 7.3 7.3 7.1 6.8 6.6 6.3 6.1 6.4 6.4 6.4 6.0 5.9 6.2 6.4
8.3 8.2 8.3 8.4 8.2 8.1 8.1 7.7 7.7 7.8 7.5 7.4 7.3 7.3 7.2 7.3 7.2 7.2 7.0 6.9 6.8 6.2 6.1 5.9 5.8 6.0 6.0 6.2 6.1 6.0 6.4 6.2
8.2 8.1 8.1 8.2 8.2 8.3 8.3 8.2 7.9 7.6 7.7 7.2 5.8 5.9 6.7 6.6 6.9 6.8 6.6 6.6 6.7 6.1 6.4 6.4 6.0 6.2 6.4 6.6 6.6 6.5 6.5 6.3
8.4 8.3 8.1 8.1 8.2 8.3 8.5 8.5 8.4 8.0 7.7 7.3 7.1 7.0 7.1 7.1 6.9 7.0 6.7 6.5 5.8 6.5 7.1 6.8 6.5 6.6 6.9 7.0 7.0 7.1 6.3 6.1
8.5 8.6 8.7 8.5 8.4 8.3 8.2 8.2 8.2 8.0 7.8 7.6 7.5 7.2 7.5 7.2 7.2 6.9 6.9 6.7 6.5 6.7 6.7 6.6 6.5 6.8 7.1 7.4 6.8 6.5 6.3 6.5
8.6 8.7 8.8 8.9 9.0 8.9 8.3 8.2 8.1 8.0 7.8 7.5 7.4 7.3 7.2 6.9 7.1 7.3 7.2 7.1 7.0 6.8 6.5 6.6 6.9 7.2 7.4 6.7 6.6 6.5 6.4 6.3
8.7 8.8 9.0 8.8 8.7 8.8 8.6 8.3 8.3 8.1 7.7 7.4 7.3 7.2 7.1 7.1 7.2 7.1 7.3 7.1 6.9 6.7 6.7 7.0 7.3 7.3 6.9 6.6 6.4 6.4 6.4 6.4
9.0 9.0 8.9 8.8 8.5 8.4 8.1 8.0 7.9 7.9 7.6 7.4 7.2 7.1 7.0 7.0 7.1 7.1 7.0 6.8 6.8 6.9 7.1 7.1 7.0 7.0 6.9 6.4 6.4 6.3 6.3 6.2
9.1 9.0 8.6 8.4 8.3 8.1 7.8 7.8 7.8 7.5 7.2 7.1 7.0 6.8 6.8 7.0 7.2 7.1 6.9 6.8 6.8 7.0 7.0 7.0 6.9 6.6 6.6 6.4 6.3 6.2 6.0 5.7
Wind_Speed
11 12 11 12 11 9 10 8 11 8 3 3 3 3 4 9 10 10 13 15 16 13 9 10 13 5 4 3 3 1 2 4
11 11 11 11 11 11 10 12 11 9 5 5 3 3 3 3 9 14 16 15 17 12 7 7 9 6 6 5 3 4 1 3
9 10 11 11 11 12 10 11 12 11 8 6 3 3 2 3 6 9 14 14 15 13 10 5 6 4 5 6 5 3 3 4
11 13 12 12 11 13 10 10 11 10 12 3 2 3 3 2 2 2 5 12 13 13 12 8 6 5 6 6 6 7 4 2
10 11 12 13 12 8 9 8 9 9 7 7 6 4 4 3 4 3 5 13 13 15 14 13 9 7 6 7 6 4 4 4
14 14 13 11 12 12 10 9 11 12 11 6 6 4 4 3 3 5 5 6 14 14 14 12 7 6 7 7 6 6 5 4
14 11 10 9 7 9 11 11 12 14 14 10 10 9 7 5 5 6 5 5 5 10 14 12 12 9 8 8 8 8 7 5
13 15 13 12 11 12 12 13 15 14 14 15 13 12 10 11 10 8 7 5 5 9 7 8 9 12 12 10 9 8 7 7
16 17 15 15 16 16 16 17 17 17 16 16 14 14 9 10 11 10 8 8 9 7 9 11 11 12 10 9 6 6 8 7
17 16 17 17 17 20 20 19 19 19 19 16 16 14 16 13 12 7 7 5 5 6 8 10 7 6 9 9 6 8 7 6
12 14 15 16 18 17 18 19 21 20 17 16 14 13 11 11 6 7 7 3 3 5 4 4 5 5 6 8 6 6 8 5
14 13 14 16 14 15 17 18 20 18 16 11 7 6 7 6 7 6 7 6 7 7 8 7 8 9 8 8 7 8 9 7
15 15 14 14 16 16 19 20 19 16 11 9 12 18 18 14 12 11 12 12 11 11 11 13 9 9 9 9 10 9 9 8
12 12 14 15 15 16 17 17 17 14 16 20 18 16 15 15 12 13 12 12 14 14 11 10 11 11 10 9 9 9 8 8
14 12 13 14 15 16 16 14 14 15 18 15 16 15 12 12 13 13 16 15 11 9 10 9 8 8 9 8 8 8 7 6
11 13 10 8 8 8 9 9 12 14 16 14 10 5 4 5 7 9 6 7 8 8 8 6 6 6 5 8 8 7 8 8
9 6 7 8 8 6 5 6 6 9 9 10 7 6 5 4 5 5 6 6 8 9 8 8 8 4 11 11 10 8 8 7
12 14 14 10 7 8 8 7 8 8 9 9 8 8 7 6 6 7 7 7 7 8 8 8 7 8 13 12 12 7 7 6
12 11 7 7 7 10 9 9 8 8 8 8 9 10 9 8 8 7 6 7 8 8 7 8 8 6 11 12 13 8 8 8
Wind_Direction
174 167 162 166 173 169 168 156 163 174 139 119 120 139 140 157 164 171 166 175 180 175 180 187 166 152 149 154 146 127 153 171
167 165 162 173 175 179 164 166 164 175 169 169 170 165 148 155 166 177 176 186 189 176 186 179 172 169 179 172 135 163 145 120
165 159 165 182 174 183 183 172 171 182 183 189 184 146 152 167 177 178 186 183 184 186 187 181 183 153 159 165 153 139 169 163
184 173 173 186 186 184 182 179 167 181 186 147 102 92 88 137 162 182 199 195 191 193 194 176 177 170 185 187 179 169 169 152
183 175 170 185 193 186 174 185 173 183 181 179 189 181 172 182 168 181 200 204 203 200 197 191 185 184 188 196 187 180 149 166
185 187 183 187 182 181 178 177 184 192 196 189 189 186 181 179 177 191 212 212 207 205 202 193 191 194 205 190 183 194 203 158
186 184 171 182 183 180 180 181 189 188 191 199 191 191 183 185 201 203 206 215 214 211 207 201 204 205 197 200 208 198 194 198
177 179 181 180 188 190 187 190 197 196 198 204 203 197 196 202 205 211 204 217 220 224 202 207 213 209 204 193 201 208 187 196
184 187 186 187 190 189 191 193 202 204 206 210 209 210 210 217 217 216 214 215 218 204 199 212 213 210 199 192 201 204 191 181
193 187 189 189 193 195 193 197 203 206 208 211 213 214 218 221 220 219 220 213 224 197 202 209 206 183 185 180 190 202 192 178
200 196 195 197 201 197 196 201 206 209 211 216 219 220 222 229 213 211 215 199 162 188 200 175 178 197 180 179 185 186 186 180
203 202 206 205 200 199 205 206 210 211 210 210 208 220 220 205 218 186 175 150 153 172 195 203 200 196 184 191 185 181 177 172
201 203 201 200 206 200 205 208 212 207 183 169 194 215 208 204 199 180 182 175 175 189 206 217 202 191 182 187 188 191 175 178
204 204 204 206 208 208 209 207 207 195 186 200 209 216 215 209 189 186 182 184 206 216 206 209 204 187 183 184 184 165 166 163
201 209 205 208 212 210 212 205 195 187 195 200 207 214 207 198 194 193 196 204 210 195 199 206 192 170 163 156 153 146 144 144
187 196 195 198 201 201 205 194 186 184 195 198 201 152 161 165 191 197 185 164 175 164 149 149 136 141 148 147 143 142 137 134
198 205 169 194 187 161 133 146 146 149 151 160 143 132 135 122 114 120 113 121 132 130 141 136 133 131 137 131 135 137 134 135
177 199 193 187 164 160 161 144 128 138 145 137 128 130 140 145 142 129 132 136 131 121 120 123 126 129 132 127 118 121 113 105
193 192 162 146 130 150 130 133 132 133 137 139 145 148 149 146 133 125 114 111 117 123 118 114 113 111 112 105 91 89 87 81